DELTA 1 DEB *, 8791

Orbit data source: Space-Track

DELTA 1 DEB *, 8791 is space debris in SSO originally from a launch on Sun, 02 Oct 1966 UTC launched from the Air Force Western Test Range (AFWTR). Debris objects in space refer to the collection of defunct objects orbiting the Earth. Examples of debris include non-operational satellites, rocket bodies, and fragments generated from explosions, collisions, or faulty payload assembly.

Loading next visibility...
Identifier
8791, 1966-087F
Orbit
SSO
Country
Flag of USUS
Related business
Manufacturer
Unknown
Mission
Spacecraft
Bus & Motor
Unknown
Mass
Unknown
Launch date (UTC)
1966-10-02 (60 years ago)
Launch vehicle
Unknown
Launch site
Air Force Western Test Range (AFWTR)
Object type
Payload
Rocket body
Debris
Shape & HBR
Unknown shape, 0.1 m
Radar Cross Section
Medium (>0.1 m² and <1 m²)

Expand to show TLE details & history
Last TLE update: 11 hours ago

TLE from 11 hours ago
0 DELTA 1 DEB *
1 08791U 66087F   26263.91488934  .00000152  00000-0  10388-2 0  9997
2 08791 101.6577 244.6290 0141542  12.1289  14.8531 12.63973464756501
Epoch: 2026-09-20T21:57Z
TLE epoch observation values (Epoch: 2026-09-20T21:57:26.438Z)
Latitude
26.83147°
Longitude
-90.49364°
Altitude
1,303.165 km
Speed
7.256 km/s
True Right ascension
15h 54m 40s
True Declination
26° 42' 11"
Sunlit
Object was in daylight at epoch
Visualization orbit readout
Latitude
Unknown
Longitude
Unknown
Altitude
Unknown
Speed
Unknown
Apparent Right ascension
Unknown
Apparent Declination
Unknown
Sunlit
N/A
Visualization observer readout
Local Sidereal Time
02:03:52
Azimuth
Unknown
Elevation
Unknown
Doppler factor
Unknown
Orbital elements
Apogee altitude
1,514.261 km
Perigee altitude
1,293.958 km
Semi-major axis
7,782.246 km
Eccentricity
0.01415
Inclination
101.6577°
RAAN
244.629°
Arg. of periapsis
12.1289°
True anomaly
15.2761°
Mean anomaly
14.8531°
Eccentric anomaly
15.06387°
Mean motion
3.16145 °/min
Orbital period
113.87 mins
BSTAR
0.0010388
Loading maneuver chart data...
Computing Atmospheric mass density...
Loading historical data...
Loading historical data...
Loading historical data...
Loading historical data...
Loading historical data...
Loading historical data...
Loading historical data...
Other satellites on launch #87 in the year 1966 (1966-10-02 UTC)

Documentation

Showing up to 5 results
|